Location: Nasgenstadt
(48.2786°N, 9.7553°E)
Time: 02:06:21
(UTC+01:00)

Tiangong 2 - Visible Passes

Search period start: 21 November 2017 00:00
Search period end: 01 December 2017 00:00
Orbit: 386 x 391 km, 42.8° (Epoch: 20 November)

Date Brightness Start Highest point End Pass type
(mag) Time Alt. Az. Time Alt. Az. Time Alt. Az.
27 Nov 4.0 06:50:04 10° SSW 06:52:05 16° SSE 06:54:06 10° ESE visible
28 Nov 4.2 05:53:10 10° S 05:54:07 11° SSE 05:55:03 10° SE visible
29 Nov 3.4 06:29:42 10° SW 06:32:13 21° SSE 06:34:43 10° ESE visible
30 Nov 3.6 05:33:26 15° S 05:34:10 16° SSE 05:36:15 10° ESE visible
30 Nov 2.9 07:07:37 10° WSW 07:10:27 29° S 07:13:18 10° ESE visible
